Location: Muck Cross
(36.7179°N, 78.3678°W)
Time: 20:25:29
(UTC+00:00)

N. Korean satellite - Visible Passes

Search period start: 02 February 2023 00:00
Search period end: 12 February 2023 00:00
Orbit: 407 x 443 km, 97.3° (Epoch: 01 February)

Date Brightness Start Highest point End Pass type
(mag) Time Alt. Az. Time Alt. Az. Time Alt. Az.
02 Feb 6.4 10:49:46 10° N 10:52:55 51° WNW 10:56:05 10° SSW visible
03 Feb 8.1 10:07:23 10° NNE 10:10:20 31° E 10:13:17 10° SSE visible
03 Feb 8.4 11:41:36 10° WNW 11:42:15 10° WNW 11:42:54 10° W visible
04 Feb 6.7 10:56:49 10° N 10:59:52 39° WNW 11:02:57 10° SW visible
05 Feb 7.7 10:14:07 10° NNE 10:17:12 39° E 10:20:18 10° S visible
06 Feb 7.0 11:03:37 10° N 11:06:33 32° WNW 11:09:31 10° SW visible
07 Feb 7.1 10:20:36 10° NNE 10:23:47 50° E 10:26:59 10° S visible
08 Feb 9.7 09:39:20 10° ENE 09:40:44 12° E 09:42:08 10° ESE visible
08 Feb 7.3 11:10:12 10° NNW 11:12:59 26° WNW 11:15:46 10° SW visible
09 Feb 6.7 10:26:53 10° NNE 10:30:07 65° E 10:33:23 10° S visible
10 Feb 9.5 09:45:01 10° ENE 09:46:58 15° E 09:48:55 10° SE visible
10 Feb 7.5 11:16:34 10° NNW 11:19:08 22° WNW 11:21:43 10° SW visible
11 Feb 6.3 10:32:54 10° NNE 10:36:11 81° ESE 10:39:29 10° S visible
